Oskaloosa, IA

8:39 PM CDT on March 30, 2017 (GMT -0500)
Oskaloosa Municipal

Weather History for KOOA - November, 2013

Change the Weather History Date:

Saturday, November 9, 2013

  Actual Average (KOTM) Record (KOTM)
Temperature  
Mean Temperature 48 °F -  
Max Temperature 58 °F 51 °F 77 °F (1999)
Min Temperature 37 °F 34 °F 10 °F (1925)
Degree Days  
Heating Degree Days 17    
Moisture  
Dew Point 33 °F    
Average Humidity 60    
Maximum Humidity 78    
Minimum Humidity 38    
Precipitation  
Precipitation 0.00 in - - ()
Sea Level Pressure  
Sea Level Pressure 30.05 in    
Wind  
Wind Speed 14 mph (West)    
Max Wind Speed 25 mph    
Max Gust Speed 32 mph    
Visibility 10 miles    
Events      
Averages and records for this station are not official NWS values.
T = Trace of Precipitation, MM = Missing Value Source: NWS Daily Summary

Daily Weather History Graph

Daily Weather History Graph

Search for Another Location

Airport or City:

Trip Planner

Search our weather history database for the weather conditions in past years. The results will help you decide how hot, cold, wet, or windy it might be!

Date:

Astronomy

Nov. 09, 2013 Rise Set
Actual Time 6:51 AM CST 4:56 PM CST
Civil Twilight 6:21 AM CST 5:25 PM CST
Nautical Twilight 5:48 AM CST 5:58 PM CST
Astronomical Twilight 5:16 AM CST 6:30 PM CST
Moon 12:27 PM CST (11/9) 11:27 PM CST (11/9)
Length of Visible Light 11h 03m
Length of Day
10h 04m
Waxing Crescent, 44% of the Moon is Illuminated
Nov 9
Waxing Crescent
Nov 9
First Quarter
Nov 17
Full
Nov 25
Last Quarter
Dec 2
New

Hourly Weather History & Observations

Time (CST) Temp. Windchill Dew Point Humidity Pressure Visibility Wind Dir Wind Speed Gust Speed Precip Events Conditions
12:15 AM 50.0 °F - 34.7 °F 56% 29.86 in 10.0 mi SW 16.1 mph 21.9 mph N/A   Clear
12:35 AM 49.1 °F - 34.9 °F 58% 29.86 in 10.0 mi SW 16.1 mph - N/A   Clear
12:55 AM 49.5 °F - 34.7 °F 57% 29.86 in 10.0 mi WSW 16.1 mph 20.7 mph N/A   Clear
1:15 AM 50.0 °F - 34.0 °F 54% 29.87 in 10.0 mi WSW 16.1 mph 20.7 mph N/A   Clear
1:35 AM 49.5 °F - 34.2 °F 56% 29.87 in 10.0 mi WSW 15.0 mph - N/A   Clear
1:55 AM 48.4 °F - 34.2 °F 58% 29.88 in 10.0 mi SW 13.8 mph - N/A   Clear
2:15 AM 47.7 °F - 34.0 °F 59% 29.89 in 10.0 mi WSW 12.7 mph - N/A   Clear
2:35 AM 46.8 °F - 34.0 °F 61% 29.89 in 10.0 mi WSW 11.5 mph - N/A   Clear
2:55 AM 45.5 °F 40.3 °F 34.0 °F 64% 29.89 in 10.0 mi WSW 10.4 mph - N/A   Clear
3:15 AM 44.1 °F 40.1 °F 33.6 °F 67% 29.90 in 10.0 mi WSW 6.9 mph - N/A   Clear
3:35 AM 43.0 °F 38.8 °F 33.4 °F 69% 29.90 in 10.0 mi WSW 6.9 mph - N/A   Clear
3:55 AM 42.4 °F 37.5 °F 33.3 °F 70% 29.90 in 10.0 mi SW 8.1 mph - N/A   Clear
4:15 AM 41.9 °F 36.3 °F 33.1 °F 71% 29.91 in 10.0 mi SW 9.2 mph - N/A   Clear
4:35 AM 41.0 °F 35.8 °F 32.7 °F 72% 29.91 in 10.0 mi SW 8.1 mph - N/A   Clear
4:55 AM 38.5 °F 32.7 °F 32.0 °F 78% 29.92 in 10.0 mi SW 8.1 mph - N/A   Clear
5:15 AM 38.7 °F 32.4 °F 32.0 °F 77% 29.92 in 10.0 mi SW 9.2 mph - N/A   Clear
5:35 AM 38.8 °F 33.2 °F 32.2 °F 77% 29.93 in 10.0 mi SW 8.1 mph - N/A   Clear
5:55 AM 39.7 °F 33.2 °F 32.9 °F 77% 29.94 in 10.0 mi SW 10.4 mph - N/A   Clear
6:15 AM 41.4 °F 35.2 °F 33.1 °F 72% 29.95 in 10.0 mi WSW 10.4 mph - N/A   Clear
6:35 AM 41.0 °F 34.7 °F 32.9 °F 73% 29.96 in 10.0 mi WSW 10.4 mph - N/A   Clear
6:55 AM 40.1 °F 34.7 °F 32.4 °F 74% 29.96 in 10.0 mi WSW 8.1 mph - N/A   Clear
7:15 AM 40.1 °F 34.1 °F 32.4 °F 74% 29.97 in 10.0 mi WSW 9.2 mph - N/A   Clear
7:35 AM 41.4 °F 36.2 °F 33.1 °F 72% 29.98 in 10.0 mi West 8.1 mph - N/A   Clear
7:55 AM 43.7 °F 38.6 °F 34.0 °F 69% 29.99 in 10.0 mi West 9.2 mph - N/A   Clear
8:15 AM 45.7 °F 39.5 °F 34.3 °F 65% 29.99 in 10.0 mi West 13.8 mph - N/A   Clear
8:35 AM 47.3 °F - 34.0 °F 60% 30.00 in 10.0 mi West 17.3 mph 20.7 mph N/A   Clear
8:55 AM 48.2 °F - 34.0 °F 58% 30.01 in 10.0 mi WNW 17.3 mph 23.0 mph N/A   Clear
9:15 AM 50.0 °F - 33.8 °F 54% 30.02 in 10.0 mi West 19.6 mph 25.3 mph N/A   Clear
9:35 AM 51.6 °F - 33.6 °F 50% 30.02 in 10.0 mi WNW 23.0 mph 27.6 mph N/A   Clear
9:55 AM 51.8 °F - 33.4 °F 50% 30.03 in 10.0 mi WNW 20.7 mph 28.8 mph N/A   Clear
10:15 AM 53.1 °F - 34.2 °F 49% 30.03 in 10.0 mi WNW 23.0 mph 27.6 mph N/A   Clear
10:35 AM 53.8 °F - 33.8 °F 47% 30.04 in 10.0 mi West 20.7 mph 27.6 mph N/A   Clear
10:55 AM 54.5 °F - 34.5 °F 47% 30.05 in 10.0 mi WNW 21.9 mph 27.6 mph N/A   Clear
11:15 AM 54.7 °F - 34.3 °F 46% 30.05 in 10.0 mi WNW 21.9 mph 28.8 mph N/A   Clear
11:35 AM 55.0 °F - 35.1 °F 47% 30.05 in 10.0 mi WNW 20.7 mph 28.8 mph N/A   Clear
11:55 AM 55.6 °F - 35.4 °F 47% 30.05 in 10.0 mi WNW 25.3 mph 32.2 mph N/A   Clear
12:15 PM 56.3 °F - 35.1 °F 45% 30.05 in 10.0 mi WNW 25.3 mph 31.1 mph N/A   Clear
12:35 PM 56.8 °F - 35.1 °F 44% 30.06 in 10.0 mi WNW 20.7 mph 27.6 mph N/A   Clear
12:55 PM 57.0 °F - 35.1 °F 44% 30.06 in 10.0 mi West 18.4 mph - N/A   Clear
1:15 PM 57.9 °F - 34.2 °F 41% 30.06 in 10.0 mi WNW 21.9 mph 26.5 mph N/A   Clear
1:35 PM 58.1 °F - 34.0 °F 40% 30.07 in 10.0 mi WNW 23.0 mph 27.6 mph N/A   Clear
1:55 PM 57.6 °F - 32.7 °F 39% 30.07 in 10.0 mi WNW 23.0 mph 28.8 mph N/A   Clear
2:15 PM 57.6 °F - 32.0 °F 38% 30.08 in 10.0 mi WNW 24.2 mph 29.9 mph N/A   Clear
2:35 PM 57.2 °F - 32.0 °F 38% 30.08 in 10.0 mi WNW 19.6 mph - N/A   Clear
2:55 PM 57.2 °F - 32.0 °F 38% 30.09 in 10.0 mi NW 20.7 mph 27.6 mph N/A   Clear
3:15 PM 56.7 °F - 31.8 °F 39% 30.09 in 10.0 mi WNW 19.6 mph 25.3 mph N/A   Clear
3:35 PM 56.3 °F - 32.0 °F 40% 30.10 in 10.0 mi WNW 17.3 mph 25.3 mph N/A   Clear
3:55 PM 55.4 °F - 32.0 °F 41% 30.11 in 10.0 mi WNW 16.1 mph 23.0 mph N/A   Clear
4:15 PM 54.3 °F - 32.9 °F 44% 30.11 in 10.0 mi WNW 12.7 mph 18.4 mph N/A   Clear
4:35 PM 52.7 °F - 33.1 °F 47% 30.12 in 10.0 mi WNW 12.7 mph - N/A   Clear
4:55 PM 50.0 °F - 33.3 °F 53% 30.12 in 10.0 mi WNW 10.4 mph - N/A   Clear
5:15 PM 46.6 °F - 33.3 °F 60% 30.12 in 10.0 mi WNW 6.9 mph - N/A   Clear
5:35 PM 43.7 °F 38.6 °F 32.4 °F 64% 30.13 in 10.0 mi WNW 9.2 mph - N/A   Clear
5:55 PM 44.6 °F 39.2 °F 33.4 °F 65% 30.15 in 10.0 mi WNW 10.4 mph - N/A   Clear
6:15 PM 43.0 °F 38.2 °F 33.3 °F 69% 30.15 in 10.0 mi WNW 8.1 mph - N/A   Clear
6:35 PM 41.4 °F 36.2 °F 32.7 °F 71% 30.17 in 10.0 mi WNW 8.1 mph - N/A   Clear
6:55 PM 45.5 °F 38.9 °F 33.8 °F 64% 30.17 in 10.0 mi WNW 15.0 mph - N/A   Clear
7:15 PM 47.5 °F - 33.3 °F 58% 30.18 in 10.0 mi WNW 16.1 mph 21.9 mph N/A   Clear
7:35 PM 47.3 °F - 33.3 °F 58% 30.19 in 10.0 mi NW 13.8 mph - N/A   Clear
8:35 PM 43.0 °F 37.7 °F 32.9 °F 68% 30.22 in 10.0 mi NW 9.2 mph - N/A   Clear
8:55 PM 42.1 °F 36.6 °F 32.9 °F 70% 30.23 in 10.0 mi NW 9.2 mph - N/A   Clear
9:15 PM 41.0 °F 34.7 °F 32.4 °F 71% 30.24 in 10.0 mi NW 10.4 mph - N/A   Clear
9:35 PM 41.0 °F 33.9 °F 32.0 °F 70% 30.24 in 10.0 mi NW 12.7 mph - N/A   Clear
9:55 PM 41.0 °F 34.7 °F 32.0 °F 70% 30.25 in 10.0 mi NW 10.4 mph - N/A   Clear
10:15 PM 39.6 °F 33.0 °F 31.5 °F 73% 30.26 in 10.0 mi NW 10.4 mph - N/A   Clear
10:35 PM 39.6 °F 32.1 °F 31.8 °F 74% 30.26 in 10.0 mi NW 12.7 mph - N/A   Clear
10:55 PM 40.1 °F 32.0 °F 31.5 °F 71% 30.27 in 10.0 mi NNW 15.0 mph - N/A   Clear
11:15 PM 39.2 °F 31.2 °F 31.1 °F 73% 30.27 in 10.0 mi NNW 13.8 mph - N/A   Clear
11:35 PM 38.3 °F 30.5 °F 30.6 °F 74% 30.28 in 10.0 mi NW 12.7 mph - N/A   Clear
11:55 PM 37.2 °F 30.0 °F 30.2 °F 76% 30.28 in 10.0 mi NW 10.4 mph - N/A   Clear